Domov               UVHVVR             MKGP            O straneh              
ZDRAVSTVENO VARSTVO RASTLIN
  MREŽA AGROMET. POSTAJ
 ► PROGNOSTIČNA OBVESTILA
AGROMETEOROLOŠKI PODATKI -
ARSO
OBVLADOVANJE TVEGANJ ZARADI
NEUGODNIH VREMENSKIH RAZMER
  ► NARAVNE NESREČE
  ► SUŠA/MOČA
  ► NAMAKANJE
  ► ŽLED (gozdarstvo)
KARTOGRAFSKI PRIKAZI
SPLETNE POVEZAVE
PROJEKTI IN PUBLIKACIJE

AGROMETEOROLOŠKA MREŽA: VREMENSKE POSTAJE IN FENOLOŠKA OPAZOVANJA

Pregled podatkov za lokacijo Vidonci, meteorološka postaja 42838

Pregled senzorjev na lokaciji

ID Ime Zadnja
vrednost
Datum
zadnje
spremembe
Tip
senzorja
2110 Omočenost lista (U) 0 U 26.3.2019 18:00 A730WET
2112 Relativna vlaga 2 m (% RH) 32,24 % RH 26.3.2019 18:00 50YA
2111 Temperatura 2 m (°C) 9,72 °C 26.3.2019 18:00 50YA

Pregled podatkov zadnjih 24 ur

Zap.
št.
Datum in čas Vidonci
Omočenost
lista
Relativna
vlaga
2
m
Temperatura
2
m
1 26.3.2019 17:30
2 26.3.2019 17:00 0 32,2 9,7
3 26.3.2019 16:30 0 32,6 9,5
4 26.3.2019 16:00 0 31,6 10,8
5 26.3.2019 15:30 0 33,8 10,2
6 26.3.2019 15:00 0 33,5 10,4
7 26.3.2019 14:30 0 35 10,3
8 26.3.2019 14:00 0 35,8 10,4
9 26.3.2019 13:30 0 35 10,7
10 26.3.2019 13:00 0 35,3 10,6
11 26.3.2019 12:30 0 37 10,3
12 26.3.2019 12:00 0 37,2 9,5
13 26.3.2019 11:30 0 38,5 9,5
14 26.3.2019 11:00 0 39,3 9,3
15 26.3.2019 10:30 0 43,9 8,3
16 26.3.2019 10:00 0 44,6 8
17 26.3.2019 09:30 0 47 8
18 26.3.2019 09:00 0 52,5 7,1
19 26.3.2019 08:30 0 55,1 6,3
20 26.3.2019 08:00 0 56 5,9
21 26.3.2019 07:30 0 57 5,3
22 26.3.2019 07:00 0 61,8 3,7
23 26.3.2019 06:30 0 65,2 2,7
24 26.3.2019 06:00 0 67,3 2,2
25 26.3.2019 05:30 0 64,8 2,7
26 26.3.2019 05:00 0 62,9 2,9
27 26.3.2019 04:30 0 61,4 3,1
28 26.3.2019 04:00 0 58,4 3,4
29 26.3.2019 03:30 0 55,6 3,7
30 26.3.2019 03:00 0 52,5 4,2
31 26.3.2019 02:30 0 50,5 4,6
32 26.3.2019 02:00 0 49,4 4,9
33 26.3.2019 01:30 0 48,7 5,1
34 26.3.2019 01:00 0 47,6 5,3
35 26.3.2019 00:30 0 48 5,2
36 26.3.2019 00:00 0 46,2 5,5
37 25.3.2019 23:30 0 45,8 5,6
38 25.3.2019 23:00 0 43,9 6
39 25.3.2019 22:30 0 45,4 6
40 25.3.2019 22:00 0 44,8 6,2
41 25.3.2019 21:30 0 38,1 6,9
42 25.3.2019 21:00 0 41,4 7
43 25.3.2019 20:30 0 44,9 7
44 25.3.2019 20:00 0 50,7 6,7
45 25.3.2019 19:30 0 54,1 6,7
46 25.3.2019 19:00 0 51,3 7,1
47 25.3.2019 18:30 2 61,2 6,5
48 25.3.2019 18:00 3 75,9 5,9
© 2011 Ministrstvo za kmetijstvo, gozdarstvo in prehrano. Vse pravice pridržane.